Flag for United Kingdom Weather past 2 weeks in Edinburgh, Scotland, United Kingdom

39 °F

Light rain. Partly cloudy.

Feels Like: 31 °F
Forecast: 37 / 43 °F
Wind: 15 mph from West

Location: Edinburgh Airport

Current Time: Nov 29, 2015 at 12:55:59 AM

Latest Report: Nov 29, 2015 at 12:20 AM

Visibility: N/A

Pressure: 29.27 "Hg

Humidity: 81%

Dew point: 34 °F

Location of EdinburghLocation

Historic Weather in Edinburgh — Graph


Edinburgh temperature yesterday

Maximum temperature yesterday: 45 °F (at 3:20 PM)
Minimum temperature yesterday: 34 °F (at 1:20 AM)
Average temperature yesterday: 40 °F

Past Weeks' High & Low Weather Summary

High59 °F (Nov 15, 6:20 PM)100% (Nov 14, 8:20 PM)30.21 "Hg (Nov 14, 8:20 PM)
Low30 °F (Nov 20, 8:50 PM)56% (Nov 21, 10:50 AM)29.12 "Hg (Nov 16, 1:20 AM)
Average43 °F85%29.65 "Hg
* Reported Nov 13 11:50 PM — Nov 28 11:20 PM, Edinburgh, Weather by CustomWeather, © 2015

Note: Actual official high and low records may vary slightly from our data, if they occured in-between our weather recording intervals... More about our weather records


Edinburgh weather history for previous 24 hours

Time TempWeatherWind HumidityBarometerVisibility
11:20 PM
Sat, Nov 28
41 °FLight rain. Passing clouds.24 mph76%29.27 "HgN/A
10:50 PM39 °FPassing clouds.20 mph87%29.27 "HgN/A
10:20 PM37 °FPassing clouds.12 mph87%29.27 "HgN/A
9:50 PM37 °FPassing clouds.20 mph87%29.27 "HgN/A
9:20 PM39 °FLight rain. Passing clouds.18 mph87%29.27 "HgN/A
8:20 PM41 °FPassing clouds.15 mph81%29.24 "HgN/A
7:50 PM41 °FQuite cool.13 mph81%29.24 "HgN/A
7:20 PM41 °FQuite cool.18 mph81%29.24 "HgN/A
6:50 PM39 °FPassing clouds.14 mph87%29.21 "HgN/A
6:20 PM39 °FPassing clouds.13 mph87%29.21 "HgN/A
5:50 PM41 °FLight rain. Partly cloudy.20 mph87%29.24 "HgN/A
5:20 PM41 °FLight rain. Passing clouds.15 mph87%29.24 "HgN/A
4:50 PM39 °FLight rain. Passing clouds.14 mph93%29.21 "HgN/A
4:20 PM43 °FRain showers. Passing clouds.17 mph87%29.21 "Hg4 mi
3:50 PM43 °FPassing clouds.17 mph87%29.21 "HgN/A
3:20 PM45 °FPartly sunny.17 mph87%29.21 "HgN/A
2:50 PM43 °FLight rain. Mostly cloudy.16 mph93%29.24 "HgN/A
2:20 PM43 °FLight rain. Partly sunny.17 mph93%29.24 "HgN/A
1:50 PM43 °FLight rain. Partly sunny.23 mph87%29.24 "HgN/A
1:20 PM43 °FLight rain. Mostly cloudy.22 mph87%29.24 "HgN/A
12:50 PM43 °FLight rain. Mostly cloudy.22 mph87%29.27 "HgN/A
12:20 PM43 °FLight rain. More clouds than sun.23 mph87%29.27 "HgN/A
11:50 AM43 °FLight rain. Overcast.28 mph87%29.30 "HgN/A
11:20 AM43 °FLight rain. Partly sunny.26 mph81%29.30 "HgN/A
10:50 AM43 °FLight rain. Partly sunny.25 mph81%29.33 "HgN/A
10:20 AM43 °FLight rain. Scattered clouds.22 mph81%29.36 "HgN/A
9:50 AM41 °FLight rain. Partly sunny.23 mph87%29.39 "HgN/A
9:20 AM41 °FLight rain. Partly sunny.26 mph81%29.39 "HgN/A
8:50 AM41 °FLight snow. Cloudy.24 mph81%29.42 "HgN/A
8:20 AM39 °FChilly.28 mph81%29.45 "HgN/A
7:50 AM39 °FChilly.24 mph81%29.47 "HgN/A
6:20 AM37 °FLight rain. Partly cloudy.16 mph87%29.53 "HgN/A
5:50 AM37 °FChilly.16 mph87%29.53 "HgN/A
5:20 AM37 °FChilly.15 mph87%29.56 "HgN/A
4:50 AM36 °FPassing clouds.13 mph93%29.56 "HgN/A
4:20 AM34 °FPassing clouds.10 mph93%29.59 "HgN/A
3:50 AM34 °FChilly.13 mph93%29.59 "HgN/A
3:20 AM36 °FLight rain. Passing clouds.15 mph87%29.59 "HgN/A
2:50 AM36 °FLight rain. Passing clouds.16 mph87%29.59 "HgN/A
2:20 AM36 °FChilly.15 mph87%29.59 "HgN/A
1:50 AM36 °FChilly.14 mph87%29.59 "HgN/A
1:20 AM34 °FChilly.12 mph93%29.59 "HgN/A
Weather by CustomWeather, © 2015

See weather overviewHow to use our weather pages